Find Starlink 30532

NORAD ID: 58070 Int'l Des: 2023-158 Owner: SPXS Country: US Constellation: starlink operational
LEOCIRCULAR

Live Position

Loading 3D Globe...

About Starlink 30532

Description loading...

Upcoming Passes

Passes for default location (London). Set your location on the main map for personalized predictions.

Altitude History

Loading altitude history...

Two-Line Element Set

1 58070U 23158V 26132.99006390 -.00001163 00000-0 -32742-4 0 9994
2 58070 43.0050 23.9294 0000576 255.0140 105.0648 15.27583206143403
Epoch: May 12, 2026 • Age: 18 hours

Current Status

Altitude 485.2 km
Velocity 7.62 km/s
Sub-Earth Point -13.07°S, 74.12°E
Launch Date Oct 13, 2023
Age 2.5 years
Type internet

Technical Details

Classification Payload
Mass 730.00 kg
Dry Mass 700.00 kg
Total Mass 730.00 kg
Length 0.30 m
Diameter 4.10 m
Span 29.00 m
Shape Box + pan
Manufacturer SPXS
Bus Type Starlink V2M
Phase Status In Orbit
Owner/State SPXS/US

Most Searched